Location: eljas
(40.1958°N, 6.8661°W)
Time: 09:04:49
(UTC+02:00)

ISS - All Passes

Search period start: 28 August 2014 00:00
Search period end: 07 September 2014 00:00
Orbit: 414 x 419 km, 51.6° (Epoch: 27 August)

Date Brightness Start Highest point End Pass type
(mag) Time Alt. Az. Time Alt. Az. Time Alt. Az.
28 Aug - 12:00:52 10° SE 12:01:40 11° SE 12:02:27 10° ESE daylight
28 Aug - 13:34:37 10° SW 13:37:56 80° NW 13:41:16 10° NE daylight
28 Aug - 15:12:46 10° WNW 15:15:06 18° NNW 15:17:27 10° NNE daylight
28 Aug - 16:51:37 10° NNW 16:52:54 12° N 16:54:10 10° NNE daylight
28 Aug - 18:27:57 10° NNW 18:30:36 22° NNE 18:33:16 10° ENE daylight
28 Aug - 20:04:17 10° WNW 20:07:36 64° SW 20:10:54 10° SE daylight
29 Aug - 12:46:15 10° SW 12:49:30 56° SE 12:52:46 10° ENE daylight
29 Aug - 14:23:43 10° WNW 14:26:26 23° NNW 14:29:10 10° NNE daylight
29 Aug - 16:02:49 10° NNW 16:04:07 12° N 16:05:26 10° NNE daylight
29 Aug - 17:39:40 10° NNW 17:41:56 17° NNE 17:44:11 10° ENE daylight
29 Aug - 19:15:48 10° NW 19:19:08 72° NE 19:22:28 10° ESE daylight
29 Aug - 20:54:03 10° WSW 20:55:28 12° SW 20:56:52 10° SSW daylight
30 Aug - 11:58:07 10° SSW 12:01:05 30° SE 12:04:04 10° ENE daylight
30 Aug - 13:34:45 10° W 13:37:47 32° NNW 13:40:50 10° NE daylight
30 Aug - 15:13:44 10° NW 15:15:19 13° N 15:16:54 10° NNE daylight
30 Aug - 16:51:20 10° NNW 16:53:10 14° NNE 16:55:00 10° NE daylight
30 Aug - 18:27:23 10° NW 18:30:35 42° NNE 18:33:46 10° ESE daylight
30 Aug - 20:04:31 10° W 20:07:08 21° SW 20:09:44 10° S daylight
31 Aug - 11:10:24 10° S 11:12:42 18° SE 11:14:59 10° E daylight
31 Aug - 12:45:54 10° WSW 12:49:09 50° NNW 12:52:25 10° NE daylight
31 Aug - 14:24:30 10° NW 14:26:30 15° NNW 14:28:29 10° NNE daylight
31 Aug - 16:02:52 10° NNW 16:04:20 12° N 16:05:48 10° NNE daylight
31 Aug - 17:38:58 10° NW 17:41:55 28° NNE 17:44:51 10° E daylight
31 Aug - 19:15:35 10° WNW 19:18:42 38° SW 19:21:48 10° SSE daylight
01 Sep - 11:57:13 10° SW 12:00:32 87° NW 12:03:53 10° NE daylight
01 Sep - 13:35:15 10° WNW 13:37:40 18° NNW 13:40:04 10° NNE daylight
01 Sep - 15:14:10 10° NNW 15:15:26 12° N 15:16:41 10° NNE daylight
01 Sep - 16:50:33 10° NNW 16:53:09 21° NNE 16:55:44 10° ENE daylight
01 Sep - 18:26:50 10° WNW 18:30:10 71° SW 18:33:28 10° SE daylight
02 Sep - 11:08:43 10° SW 11:11:56 51° SE 11:15:11 10° ENE daylight
02 Sep - 12:46:03 10° W 12:48:50 24° NNW 12:51:37 10° NNE daylight
02 Sep - 14:25:09 10° NNW 14:26:29 12° N 14:27:49 10° NNE daylight
02 Sep - 16:02:06 10° NNW 16:04:17 16° NNE 16:06:28 10° ENE daylight
02 Sep - 17:38:12 10° NW 17:41:31 65° NE 17:44:50 10° ESE daylight
02 Sep - 19:16:10 10° W 19:17:52 13° SW 19:19:33 10° SSW daylight
03 Sep - 10:20:29 10° SSW 10:23:22 28° SE 10:26:16 10° ENE daylight
03 Sep - 11:56:56 10° W 12:00:01 34° NNW 12:03:06 10° NE daylight
03 Sep - 13:35:51 10° NW 13:37:30 13° N 13:39:09 10° NNE daylight
03 Sep - 15:13:34 10° NNW 15:15:20 14° N 15:17:06 10° NE daylight
03 Sep - 16:49:36 10° NW 16:52:46 39° NNE 16:55:55 10° ESE daylight
03 Sep - 18:26:37 10° WNW 18:29:21 23° SW 18:32:04 10° S daylight
04 Sep - 09:32:42 10° S 09:34:48 16° SE 09:36:55 10° E daylight
04 Sep - 11:07:56 10° WSW 11:11:13 55° NNW 11:14:30 10° NE daylight
04 Sep - 12:46:27 10° NW 12:48:30 15° NNW 12:50:34 10° NNE daylight
04 Sep - 14:24:54 10° NNW 14:26:19 12° N 14:27:44 10° NNE daylight
04 Sep - 16:01:02 10° NW 16:03:55 26° NNE 16:06:48 10° E daylight
04 Sep - 17:37:34 10° WNW 17:40:44 42° SW 17:43:53 10° SSE daylight
05 Sep - 10:19:06 10° SW 10:22:26 84° SE 10:25:46 10° NE daylight
05 Sep - 11:57:01 10° WNW 11:59:30 19° NNW 12:01:59 10° NNE daylight
05 Sep - 13:35:59 10° NNW 13:37:14 12° N 13:38:29 10° NNE daylight
05 Sep - 15:12:26 10° NNW 15:14:58 20° NNE 15:17:29 10° ENE daylight
05 Sep - 16:48:41 10° NW 16:52:01 79° SW 16:55:20 10° SE daylight
06 Sep - 09:30:29 10° SSW 09:33:40 45° SE 09:36:52 10° ENE daylight
06 Sep - 11:07:39 10° W 11:10:30 25° NNW 11:13:21 10° NNE daylight
06 Sep - 12:46:44 10° NNW 12:48:07 12° N 12:49:30 10° NNE daylight
06 Sep - 14:23:49 10° NNW 14:25:55 16° NNE 14:28:02 10° NE daylight
06 Sep - 15:59:53 10° NW 16:03:11 59° NE 16:06:28 10° ESE daylight
06 Sep - 17:37:35 10° W 17:39:33 15° SW 17:41:31 10° SSW daylight
